TimeEDT,TemperatureF,Dew PointF,Humidity,Sea Level PressureIn,VisibilityMPH,Wind Direction,Wind SpeedMPH,Gust SpeedMPH,PrecipitationIn,Events,Conditions,WindDirDegrees,DateUTC
12:54 AM,45.0,33.1,63,30.05,10.0,Calm,Calm,-,N/A,,Clear,0,2013-05-08 04:54:00
1:54 AM,44.1,35.1,71,30.04,10.0,Calm,Calm,-,N/A,,Clear,0,2013-05-08 05:54:00
2:54 AM,42.1,34.0,73,30.04,10.0,Calm,Calm,-,N/A,,Clear,0,2013-05-08 06:54:00
3:54 AM,42.1,35.1,76,30.04,10.0,Calm,Calm,-,N/A,,Clear,0,2013-05-08 07:54:00
4:54 AM,39.9,35.1,83,30.03,10.0,Calm,Calm,-,N/A,,Clear,0,2013-05-08 08:54:00
5:54 AM,39.0,35.1,86,30.03,10.0,Calm,Calm,-,N/A,,Clear,0,2013-05-08 09:54:00
6:54 AM,41.0,37.0,86,30.04,10.0,Calm,Calm,-,N/A,,Clear,0,2013-05-08 10:54:00
7:54 AM,50.0,39.9,68,30.05,10.0,Calm,Calm,-,N/A,,Clear,0,2013-05-08 11:54:00
8:54 AM,60.1,37.9,44,30.05,10.0,Calm,Calm,-,N/A,,Clear,0,2013-05-08 12:54:00
9:54 AM,68.0,39.0,35,30.05,10.0,East,3.5,-,N/A,,Clear,90,2013-05-08 13:54:00
10:54 AM,73.0,39.0,29,30.04,10.0,Calm,Calm,-,0.00,,Clear,0,2013-05-08 14:54:00
11:54 AM,78.1,36.0,22,30.04,10.0,NNW,4.6,-,N/A,,Clear,340,2013-05-08 15:54:00
12:54 PM,77.0,35.1,22,30.03,10.0,Calm,Calm,-,N/A,,Clear,0,2013-05-08 16:54:00
1:54 PM,80.1,33.1,18,30.02,10.0,NW,9.2,-,N/A,,Clear,320,2013-05-08 17:54:00
2:54 PM,80.1,33.1,18,30.01,10.0,NNW,8.1,-,N/A,,Clear,340,2013-05-08 18:54:00
3:54 PM,79.0,32.0,18,30.01,10.0,North,9.2,17.3,N/A,,Clear,350,2013-05-08 19:54:00
4:54 PM,79.0,35.1,20,29.99,10.0,NW,8.1,-,N/A,,Clear,320,2013-05-08 20:54:00
5:54 PM,78.1,34.0,20,29.99,10.0,NW,8.1,-,N/A,,Clear,310,2013-05-08 21:54:00
6:54 PM,77.0,33.1,20,29.98,10.0,NW,4.6,-,N/A,,Clear,320,2013-05-08 22:54:00
7:54 PM,75.0,35.1,23,29.98,10.0,NW,9.2,-,N/A,,Clear,320,2013-05-08 23:54:00
8:54 PM,64.9,35.1,33,29.99,10.0,NW,5.8,-,N/A,,Clear,320,2013-05-09 00:54:00
9:54 PM,57.9,37.9,47,29.99,10.0,Calm,Calm,-,N/A,,Clear,0,2013-05-09 01:54:00
10:54 PM,52.0,37.9,59,30.00,10.0,Calm,Calm,-,N/A,,Clear,0,2013-05-09 02:54:00
11:54 PM,46.9,37.0,68,30.00,10.0,Calm,Calm,-,N/A,,Clear,0,2013-05-09 03:54:00